Location: Mentone
(34.5413°N, 85.5351°W)
Time: 09:58:16
(UTC-05:00)

ATLAS 5 CENTAUR R/B - Pass Details

Date: 22 June 2018
Orbit: 598 x 1061 km, 63.4° (Epoch: 17 September)

Event Time Altitude Azimuth Distance (km) Brightness Sun altitude
Exits shadow 23:15:56 40° 289° (WNW) 935 2.7 -28.3°
Maximum altitude 23:16:24 41° 306° (NW) 919 2.7 -28.4°
Drops below altitude 10° 23:20:55 10° 17° (NNE) 2,124 4.9 -28.7°
Sets 23:23:30 0° 25° (NNE) 3,113 5.7 -28.9°
